Location: Stilling
(56.0622°N, 9.9882°E)
Time: 12:07:18
(UTC+00:00)

USA 32 - Pass Details

Date: 13 July 2020
Orbit: 776 x 784 km, 85.0° (Epoch: 05 August)

Event Time Altitude Azimuth Distance (km) Brightness Sun altitude
Exits shadow 23:23:45 17° 176° (S) 1,884 5.4 -12.3°
Maximum altitude 23:27:47 73° 94° (E) 822 4.1 -12.3°
Drops below altitude 10° 23:33:03 10° 11° (N) 2,351 8.0 -12.3°
Sets 23:35:25 0° 9° (N) 3,282 9.3 -12.3°
